Fremont, NE

5:10 AM CDT on August 28, 2016 (GMT -0500)
Fremont Municipal

Weather History for KFET - January, 2013

Change the Weather History Date:

Wednesday, January 9, 2013

  Actual Average Record
Temperature  
Mean Temperature 30 °F -  
Max Temperature 42 °F 27 °F 56 °F (1958)
Min Temperature 17 °F 9 °F -13 °F (1977)
Degree Days  
Heating Degree Days 36    
Moisture  
Dew Point 27 °F    
Average Humidity 85    
Maximum Humidity 100    
Minimum Humidity 62    
Precipitation  
Precipitation 0.00 in - - ()
Sea Level Pressure  
Sea Level Pressure 30.31 in    
Wind  
Wind Speed 3 mph (South)    
Max Wind Speed 8 mph    
Max Gust Speed -    
Visibility 10 miles    
Events      
Averages and records for this station are not official NWS values.
T = Trace of Precipitation, MM = Missing Value Source: NWS Daily Summary

Daily Weather History Graph

Daily Weather History Graph

Search for Another Location

Airport or City:

Trip Planner

Search our weather history database for the weather conditions in past years. The results will help you decide how hot, cold, wet, or windy it might be!

Date:

Astronomy

Jan. 09, 2013 Rise Set
Actual Time 7:51 AM CST 5:15 PM CST
Civil Twilight 7:21 AM CST 5:45 PM CST
Nautical Twilight 6:46 AM CST 6:20 PM CST
Astronomical Twilight 6:13 AM CST 6:53 PM CST
Moon 5:32 AM CST (1/9) 3:17 PM CST (1/9)
Length of Visible Light 10h 24m
Length of Day
9h 23m
Waning Crescent, 6% of the Moon is Illuminated
Jan 9
Waning Crescent
Jan 11
New
Jan 18
First Quarter
Jan 26
Full
Feb 3
Last Quarter

Hourly Weather History & Observations

Time (CST) Temp. Windchill Dew Point Humidity Pressure Visibility Wind Dir Wind Speed Gust Speed Precip Events Conditions
12:15 AM 23.0 °F - 22.6 °F 99% 30.13 in 10.0 mi Calm Calm - N/A   Clear
12:35 AM 23.4 °F 18.9 °F 22.8 °F 98% 30.14 in 10.0 mi West 3.5 mph - N/A   Clear
12:55 AM 21.2 °F 13.6 °F 20.8 °F 99% 30.16 in 7.0 mi West 5.8 mph - N/A   Clear
1:15 AM 21.6 °F 13.0 °F 21.2 °F 99% 30.17 in 10.0 mi West 6.9 mph - N/A   Clear
1:35 AM 23.2 °F 14.1 °F 23.2 °F 100% 30.18 in 10.0 mi West 8.1 mph - N/A   Clear
2:15 AM 28.2 °F 20.2 °F 26.6 °F 94% 30.19 in 10.0 mi West 8.1 mph - N/A   Clear
2:35 AM 23.4 °F 14.3 °F 22.5 °F 96% 30.20 in 10.0 mi West 8.1 mph - N/A   Clear
2:55 AM 24.3 °F 17.3 °F 23.0 °F 95% 30.22 in 10.0 mi West 5.8 mph - N/A   Clear
3:15 AM 25.9 °F - 24.8 °F 96% 30.23 in 10.0 mi Calm Calm - N/A   Clear
3:35 AM 26.2 °F 20.7 °F 24.4 °F 93% 30.23 in 10.0 mi WNW 4.6 mph - N/A   Clear
3:55 AM 23.4 °F - 22.5 °F 96% 30.26 in 10.0 mi Calm Calm - N/A   Clear
4:15 AM 24.8 °F - 22.5 °F 91% 30.25 in 10.0 mi Calm Calm - N/A   Clear
4:35 AM 23.0 °F - 21.9 °F 96% 30.25 in 10.0 mi Calm Calm - N/A   Clear
4:55 AM 21.7 °F - 20.8 °F 96% 30.25 in 10.0 mi Calm Calm - N/A   Clear
5:15 AM 20.8 °F - 19.6 °F 95% 30.23 in 10.0 mi Calm Calm - N/A   Clear
5:35 AM 21.6 °F 16.8 °F 21.4 °F 99% 30.22 in 10.0 mi WNW 3.5 mph - N/A   Clear
5:55 AM 20.1 °F - 19.8 °F 99% 30.23 in 10.0 mi Calm Calm - N/A   Clear
6:15 AM 21.9 °F - 21.6 °F 99% 30.23 in 10.0 mi Calm Calm - N/A   Clear
6:35 AM 20.1 °F - 19.8 °F 99% 30.26 in 10.0 mi Calm Calm - N/A   Clear
6:55 AM 20.1 °F 15.2 °F 19.8 °F 99% 30.27 in 10.0 mi WSW 3.5 mph - N/A   Clear
7:15 AM 19.4 °F 11.5 °F 19.2 °F 99% 30.28 in 10.0 mi NW 5.8 mph - N/A   Clear
7:35 AM 18.9 °F 13.7 °F 18.5 °F 98% 30.28 in 10.0 mi WNW 3.5 mph - N/A   Clear
7:55 AM 17.2 °F 11.9 °F 16.7 °F 98% 30.30 in 10.0 mi West 3.5 mph - N/A   Clear
8:35 AM 20.1 °F 15.2 °F 19.6 °F 98% 30.36 in 10.0 mi SE 3.5 mph - N/A   Clear
8:55 AM 24.4 °F 17.5 °F 24.1 °F 99% 30.39 in 10.0 mi South 5.8 mph - N/A   Clear
9:15 AM 30.0 °F 25.2 °F 26.2 °F 86% 30.41 in 10.0 mi South 4.6 mph - N/A   Clear
9:35 AM 30.4 °F 24.5 °F 25.3 °F 82% 30.42 in 10.0 mi SSW 5.8 mph - N/A   Clear
9:55 AM 31.1 °F 25.4 °F 25.7 °F 80% 30.43 in 10.0 mi SSW 5.8 mph - N/A   Clear
10:15 AM 32.7 °F - 26.6 °F 78% 30.42 in 10.0 mi Calm Calm - N/A   Clear
10:35 AM 33.4 °F - 27.3 °F 78% 30.42 in 10.0 mi Calm Calm - N/A   Clear
11:15 AM 34.3 °F 30.2 °F 27.5 °F 76% 30.41 in 10.0 mi NW 4.6 mph - N/A   Clear
11:35 AM 36.5 °F 33.9 °F 29.3 °F 75% 30.40 in 10.0 mi West 3.5 mph - N/A   Clear
12:15 PM 39.4 °F - 30.2 °F 70% 30.39 in 10.0 mi Calm Calm - N/A   Clear
12:35 PM 39.2 °F - 30.0 °F 70% 30.38 in 10.0 mi Calm Calm - N/A   Clear
12:55 PM 40.5 °F - 30.0 °F 66% 30.36 in 10.0 mi Calm Calm - N/A   Clear
1:15 PM 42.8 °F 38.6 °F 30.7 °F 62% 30.36 in 10.0 mi South 6.9 mph - N/A   Clear
1:35 PM 42.4 °F 39.6 °F 31.8 °F 66% 30.34 in 10.0 mi SSE 4.6 mph - N/A   Clear
1:55 PM 40.5 °F 38.4 °F 31.3 °F 70% 30.34 in 10.0 mi SSE 3.5 mph - N/A   Clear
2:15 PM 40.1 °F - 31.8 °F 72% 30.33 in 10.0 mi Calm Calm - N/A   Clear
2:35 PM 42.8 °F 41.1 °F 30.9 °F 63% 30.33 in 10.0 mi SSE 3.5 mph - N/A   Clear
2:55 PM 42.4 °F 40.7 °F 30.9 °F 64% 30.34 in 10.0 mi South 3.5 mph - N/A   Clear
3:15 PM 41.9 °F 39.0 °F 30.7 °F 65% 30.34 in 10.0 mi South 4.6 mph - N/A   Clear
3:35 PM 40.3 °F 36.3 °F 30.9 °F 69% 30.34 in 10.0 mi South 5.8 mph - N/A   Clear
3:55 PM 39.0 °F 35.7 °F 30.9 °F 73% 30.33 in 10.0 mi SSE 4.6 mph - N/A   Clear
4:15 PM 37.8 °F 34.2 °F 30.2 °F 74% 30.33 in 10.0 mi SE 4.6 mph - N/A   Clear
4:35 PM 37.0 °F 32.4 °F 30.2 °F 76% 30.33 in 10.0 mi SE 5.8 mph - N/A   Clear
5:15 PM 35.8 °F 33.0 °F 30.2 °F 80% 30.33 in 10.0 mi SSE 3.5 mph - N/A   Clear
5:35 PM 35.4 °F - 30.6 °F 82% 30.33 in 10.0 mi Calm Calm - N/A   Clear
5:55 PM 36.3 °F - 30.7 °F 80% 30.33 in 10.0 mi Calm Calm - N/A   Clear
6:15 PM 34.5 °F 31.6 °F 30.0 °F 84% 30.33 in 10.0 mi SE 3.5 mph - N/A   Clear
6:35 PM 33.8 °F 30.8 °F 30.2 °F 87% 30.33 in 10.0 mi SE 3.5 mph - N/A   Clear
6:55 PM 31.6 °F 26.0 °F 29.1 °F 90% 30.33 in 10.0 mi SE 5.8 mph - N/A   Clear
7:15 PM 32.9 °F 26.7 °F 29.8 °F 88% 30.33 in 10.0 mi SE 6.9 mph - N/A   Clear
7:35 PM 33.8 °F 27.0 °F 30.6 °F 88% 30.33 in 10.0 mi SE 8.1 mph - N/A   Clear
7:55 PM 34.3 °F 27.7 °F 31.3 °F 89% 30.33 in 10.0 mi SE 8.1 mph - N/A   Clear
8:35 PM 34.3 °F - 30.9 °F 87% 30.33 in 10.0 mi Calm Calm - N/A   Clear
8:55 PM 35.4 °F 32.6 °F 31.8 °F 87% 30.32 in 10.0 mi SE 3.5 mph - N/A   Clear
9:15 PM 36.1 °F 32.3 °F 32.0 °F 85% 30.31 in 10.0 mi ESE 4.6 mph - N/A   Clear
9:35 PM 34.3 °F 30.2 °F 31.1 °F 88% 30.31 in 10.0 mi SE 4.6 mph - N/A   Clear
9:55 PM 33.3 °F 27.9 °F 30.2 °F 89% 30.31 in 10.0 mi SE 5.8 mph - N/A   Clear
10:15 PM 32.4 °F 26.9 °F 30.2 °F 92% 30.32 in 10.0 mi SE 5.8 mph - N/A   Clear
10:35 PM 33.8 °F 27.7 °F 30.2 °F 87% 30.32 in 10.0 mi SE 6.9 mph - N/A   Clear
10:55 PM 35.2 °F 30.3 °F 30.4 °F 82% 30.33 in 10.0 mi SE 5.8 mph - N/A   Clear
11:15 PM 36.0 °F 31.1 °F 29.8 °F 78% 30.33 in 10.0 mi SE 5.8 mph - N/A   Clear
11:35 PM 38.1 °F 32.3 °F 30.4 °F 74% 30.32 in 10.0 mi SSE 8.1 mph - N/A   Clear
11:55 PM 38.3 °F 33.9 °F 30.2 °F 73% 30.31 in 10.0 mi SE 5.8 mph - N/A   Clear